星链-34486 (STARLINK-34486)

导读 | 星芒AI

STARLINK-34486 是 SpaceX Starlink 卫星互联网项目中的一颗低轨卫星,属于第6批(v1.5)部署的星群。该卫星于2023年4月发射,运行在约550公里高度的近地轨道,旨在为全球用户提供高速互联网服务。Starlink 项目致力于构建由数千颗卫星组成的星座,以改善偏远地区的网络接入。STARLINK-34486 采用先进推进系统和激光通信技术,具备高带宽和低延迟特性,是实现全球宽带覆盖的重要组成部分。

基本信息
目录编号:
64597
目录名称:
STARLINK-34486
国际标识:
2025-137D
轨道中心:
EARTH
卫星名称:
星链-34486
卫星全名:
星链-34486 (STARLINK-34486)
卫星状态:
在轨 (已飞行127 天)
发射日期:
2025-06-25 UTC
国别 :
美国 (US)
星等 :
--
轨道信息
数据来源 国际轨道数据
星历时间: 2025-10-30T14:20:55+0800
12小时前
查看轨道信息
半长轴: 6825.304km
偏心率: 0.0001131
轨道倾角: 53.159°
近地点辐角 79.792°
升交点赤经 225.498°
平近点角 280.322°
近地点: 446.397km
远地点: 447.941km
周期: 93.528分钟
每日圈数: 15.396422
详细信息
固有亮度:
5
最大亮度:
2.5
卫星平台:
Starlink V1.0
覆盖范围:
全球
运营商:
太空探索技术公司
运营商所在国:
美国
制造商(研发单位):
太空探索技术公司
制造商所在国:
美国
使用方式:
暂无
卫星简介
Starlink 计划是 SpaceX 推出的全球卫星互联网项目,通过发射低轨道卫星,为全球尤其是偏远地区提供高速、低延迟的互联网服务。自 2019 年起,Starlink 已部署数千颗卫星,旨在缩小全球数字鸿沟,推动互联网普及。该项目还为军事、航空等行业提供通信支持,带来广泛经济效益。
2D轨道图
3D轨道图
轨道高度分析图
轨道倾角分析图
轨道综合分析图
查看轨道综合分析图